Tracking 29495 objects as of 7-Sep-2024
HD Live streaming from Space Station
objects crossing your sky now

FENGYUN 1C DEB

Track FENGYUN 1C DEB now!
10-day predictions


NORAD ID: 37415
Int'l Code: 1999-025EGH
Perigee: 861.7 km
Apogee: 1,287.3 km
Inclination: 98.9 °
Period: 106.6 minutes
Semi major axis: 7445 km
RCS: 0.0105 m2 (small)
Launch date: May 10, 1999
Source: People's Republic of China (PRC)
Launch site: Taiyaun Space Center, China (TSC)

Note: This is SATELLITE DEBRIS
Your satellite tracking list
Your tracking list is empty




NASA's NSSDC Master Catalog

Two Line Element Set (TLE):
1 37415U 99025EGH 24247.23301006  .00000765  00000-0  96080-3 0  9993
2 37415  98.9304  33.7974 0285817 291.0883  65.9918 13.51340926560328
Source of the keplerian elements: AFSPC